This is the latest recevied weather packets stored in our database for station/object HP3ICC-14. If no packets are shown the sender has not sent any weather packets the latest 10 day(s).
| Time | Temp. | Humidity | Pressure | Rain* | Wind** | Luminosity | Snow |
|---|---|---|---|---|---|---|---|
| 1788486129 | 22.78° C | 60% | 1010 hPa | 0 mm | - | - | - |
| 1788484989 | 23.33° C | 60% | 1010 hPa | 0 mm | - | - | - |
| 1788484928 | 23.33° C | 60% | 1010 hPa | 0 mm | - | - | - |
| 1788483788 | 23.89° C | 60% | 1010 hPa | 0 mm | - | - | - |
| 1788483728 | 23.89° C | 60% | 1010 hPa | 0 mm | - | - | - |
| 1788482588 | 24.44° C | 60% | 1010 hPa | 0 mm | - | - | - |
| 1788481387 | 25° C | 60% | 1009 hPa | 0 mm | - | - | - |
| 1788481327 | 25° C | 60% | 1009 hPa | 0 mm | - | - | - |
| 1788480187 | 25.56° C | 60% | 1009 hPa | 1.02 mm | - | - | - |
| 1788480127 | 25.56° C | 60% | 1009 hPa | 1.02 mm | - | - | - |
| 1788478987 | 26.11° C | 60% | 1009 hPa | 1.78 mm | - | - | - |
| 1788478927 | 26.11° C | 60% | 1009 hPa | 1.78 mm | - | - | - |
| 1788477787 | 26.67° C | 60% | 1008 hPa | 1.78 mm | - | - | - |
| 1788477727 | 26.67° C | 60% | 1008 hPa | 1.78 mm | - | - | - |
| 1788476600 | 27.22° C | 60% | 1008 hPa | 0 mm | - | - | - |
| 1788476526 | 27.22° C | 60% | 1008 hPa | 0 mm | - | - | - |
| 1788475326 | 27.78° C | 60% | 1008 hPa | 0.51 mm | - | - | - |
| 1788474186 | 28.33° C | 60% | 1007 hPa | 0.25 mm | - | - | - |
| 1788474126 | 28.33° C | 60% | 1007 hPa | 0.25 mm | - | - | - |
| 1788472986 | 28.89° C | 60% | 1007 hPa | 1.27 mm | - | - | - |
| 1788472926 | 28.89° C | 60% | 1007 hPa | 1.27 mm | - | - | - |
| 1788471812 | 29.44° C | 60% | 1007 hPa | 0.51 mm | - | - | - |
| 1788471725 | 29.44° C | 60% | 1007 hPa | 0.51 mm | - | - | - |
| 1788470585 | 26.11° C | 70% | 1007 hPa | 0 mm | - | - | - |
| 1788470525 | 26.11° C | 70% | 1007 hPa | 0 mm | - | - | - |
* Rain latest hour (hover to see other rain measurements)
** Current wind speed in m/s (hover to see current wind gust speed)